GAOFEN 3 02

Satellite information

Favourite Embed

Satellite Type and Status

PAYLOADIN ORBIT

Key statistics

Satellite GAOFEN 3 02 at a glance.

Uptime

1430

Days in orbit

Revolutions

≈ 14.4

Per day

Orbit

SSO

Sun Synchronous Orbit

Inclination

98.4

Latest

Satellite identification and parameters

Extended collection of information and parameters for GAOFEN 3 02.

Object identification

Identified? True

Debris? False

Object name: GAOFEN 3 02

International designator: 2021-109A

Object number (NORAD): 49495

Object ID (CCSDS): 49495

Country: PEOPLES REPUBLIC OF CHINA (PRC)

Current information (Y/N): Y

RCS size: LARGE

Orbital parameters

Period: 99.847 minutes

Inclination: 98.4138 deg

SMA: 7129.361 km

Apoapsis: 753.054 km

Periapsis: 749.398 km

RAAN: 301.3389 deg

Eccentricy: 0.0002564

Argument of periapsis: 16.2247 deg

Mean anomaly: 343.9024 deg

Mean motion: 14.42204641 rev/day

Mean motion (dot): 0.00000143 rev/day2

B* drag term: 0.000056751 1/REarth

Two-line elements (TLE)

Creation date: Oct. 22, 2025, 12:06 a.m.

Reference frame: TEME

Reference center: EARTH

Epoch: Oct. 21, 2025, 8:58 p.m. UTC

TLE line 0: 0 GAOFEN 3 02

TLE line 1: 1 49495U 21109A 25294.87405557 .00000143 00000-0 56751-4 0 9993

TLE line 2: 2 49495 98.4138 301.3389 0002564 16.2247 343.9024 14.42204641205967

Live tracking on map

Real-time ground track for satellite GAOFEN 3 02.

In-orbit conjunctions

There are no conjunctions computed for GAOFEN 3 02, at the moment. Check back to stay up to date, as we update our databases every day.

Go to all conjunctions

Associated space launch

Gaofen (GF) is a series of Chinese civilian remote sensing satellites for the state-sponsored program China High-definition Earth Observation System (CHEOS). GF 3 features a multi-polarized C-band SAR at meter-level resolution, with designed lifespan of 8 years. The satellite is based on the CS-L3000B bus.

GAOFEN 3 02 was lifted into orbit during the mission ‘Long March 4C | Gaofen-3 02’, on board a Long March 4C space rocket.

The launch took place on Nov. 22, 2021, 11:45 p.m. from Launch Area 4 (SLS-2 / 603).

For more information about the launch, click the button.

Launch to space Long March 4C | Gaofen-3 02
Long March 4C | Gaofen-3 02

Agency: N/A

Status: Launch Successful

Launch date: Nov. 22, 2021, 11:45 p.m. UTC

Rocket: Long March 4C

Launch pad: Launch Area 4 (SLS-2 / 603)

Location: Jiuquan Satellite Launch Center, People's Republic of China

...

Latest news about this satellite

There are no fresh news available about this satellite. Check back as we update our databases every day.


Newsletter sign-up

Weekly statistics, charts and insights to help you stay on top of the space industry.